Location: Lourdes
(43.1000°N, 0.0500°W)
Time: 01:21:18
(UTC+00:00)

Cosmos 773 Rocket - Pass Details

Date: 14 April 2021
Orbit: 745 x 777 km, 74.1° (Epoch: 10 May)

Event Time Altitude Azimuth Distance (km) Brightness Sun altitude
Rises 00:51:49 0° 350° (N) 3,252 8.1 -36.2°
Reaches altitude 10° 00:54:43 10° 5° (N) 2,326 7.2 -36.0°
Maximum altitude 00:58:49 22° 57° (ENE) 1,629 6.0 -35.8°
Enters shadow 00:59:10 22° 62° (ENE) 1,634 6.0 -35.8°
